Retour au catalogue

EKRAN 20

ActifCommunicationsGEO
NORAD 22210·PAYLOAD·🇷🇺 Russia

Lancé Oct 30, 1992 depuis Baikonur Cosmodrome

Loading…

TLE

FraisSource: Space-Track

Époque: Sep 13, 2026, 17:37 UTC

1 22210U 92074A   26256.73444787 -.00000116  00000-0  00000-0 0  9993
2 22210  13.6368 343.6483 0005059 222.9818 124.1980  1.00327754 48251

Suivez EKRAN 20 en temps réel avec AllMySat

Download on the App Store